User: anonymous   Login
Location: Unspecified
(0.0000°N, 0.0000°E)
Time: 21:43:36
(UTC+00:00)
Language:

AEHF 4 (USA 288) - Orbit

View from above orbital plane
View from above orbital plane
View from above satellite
View from above satellite

Ground track
Ground track

The orbit data is extracted from the following two-line orbital elements,

1 43651U 18079A   21332.54869528 -.00000260  00000-0  00000+0 0  9990
2 43651   2.8232 314.0608 0003409 298.8242 304.7436  1.00266417 11636
Epoch (UTC): 28 November 2021 13:10:07
Eccentricity: 0.0003409
inclination: 2.8232°
perigee height: 35773 km
apogee height: 35802 km
right ascension of ascending node: 314.0608°
argument of perigee: 298.8242°
revolutions per day: 1.00266417
mean anomaly at epoch: 304.7436°
orbit number at epoch: 1163

The dashed part of the orbit path shows where the satellite is in the earth's shadow,  

DLR